Home   Weather   Nzérékoré   Past weeks

Flag for Guinea Past Weather in Nzérékoré, Guinea — Yesterday and Last 2 Weeks

Now
75 °F

Passing clouds.


Feels Like: 74 °F
Forecast: 70 / 77 °F
Wind: No wind

Location: Roberts Field

Current Time: Jul 21, 2017 at 9:02:44 pm

Latest Report: Jul 21, 2017 at 8:30 pm


Visibility: N/A

Pressure: 29.98 "Hg

Humidity: 94%

Dew Point: 73 °F

Location of NzérékoréLocation

Past Weather in Nzérékoré — Graph

°F

Nzérékoré Temperature Yesterday

Maximum temperature yesterday: 82 °F (at 1:30 pm)
Minimum temperature yesterday: 75 °F (at 5:30 am)
Average temperature yesterday: 79 °F

High & Low Weather Summary for the Past Weeks

 TemperatureHumidityPressure
High86 °F (Jul 12, 1:30 pm)100% (Jul 10, 10:00 pm)30.04 "Hg (Jul 10, 10:00 pm)
Low73 °F (Jul 10, 10:00 pm)66% (Jul 12, 11:30 am)29.89 "Hg (Jul 7, 4:30 pm)
Average78 °F88%29.98 "Hg
* Reported Jul 6 7:00 pm — Jul 21 7:00 pm, Nzérékoré. Weather by CustomWeather, © 2017

Note: Actual official high and low records may vary slightly from our data, if they occured in-between our weather recording intervals... More about our weather records

Advertising

Nzérékoré Weather History for the Previous 24 Hours

Scroll right to see more
 ConditionsComfort  
Time TempWeatherWind HumidityBarometerVisibility
7:00 pm
Fri, Jul 21
77 °FPartly sunny.No wind89%29.95 "HgN/A
6:30 pm79 °FPartly sunny.6 mph84%29.95 "HgN/A
6:00 pm81 °FPartly sunny.6 mph79%29.92 "HgN/A
5:30 pm81 °FPartly sunny.12 mph79%29.92 "HgN/A
5:00 pm81 °FPartly sunny.7 mph79%29.92 "HgN/A
4:30 pm81 °FPartly sunny.12 mph79%29.92 "HgN/A
4:00 pm82 °FPartly sunny.14 mph74%29.92 "HgN/A
3:30 pm81 °FPartly sunny.14 mph79%29.95 "HgN/A
3:00 pm81 °FPartly sunny.12 mph79%29.95 "HgN/A
2:30 pm81 °FPartly sunny.9 mph79%29.95 "HgN/A
1:30 pm82 °FPartly sunny.13 mph79%29.98 "HgN/A
1:00 pm82 °FPartly sunny.12 mph74%29.98 "HgN/A
12:00 pm82 °FPartly sunny.14 mph74%30.01 "HgN/A
11:30 am82 °FPartly sunny.12 mph74%30.01 "HgN/A
9:00 am81 °FPartly sunny.13 mph84%30.01 "HgN/A
8:30 am79 °FPartly sunny.12 mph89%30.01 "HgN/A
8:00 am77 °FPartly sunny.No wind94%29.98 "HgN/A
7:30 am77 °FPassing clouds.No wind94%29.98 "HgN/A
7:00 am77 °FPassing clouds.No wind94%29.95 "HgN/A
6:30 am77 °FPassing clouds.No wind94%29.95 "HgN/A
6:00 am77 °FPassing clouds.No wind94%29.95 "HgN/A
5:30 am77 °FPassing clouds.No wind94%29.95 "HgN/A
1:00 am77 °FPassing clouds.No wind94%29.98 "HgN/A
12:30 am77 °FPassing clouds.No wind94%30.01 "HgN/A
12:00 am77 °FPassing clouds.No wind94%30.01 "HgN/A
11:30 pm
Thu, Jul 20
77 °FPassing clouds.No wind89%30.01 "HgN/A
10:30 pm77 °FPassing clouds.No wind89%30.01 "HgN/A
10:00 pm77 °FPassing clouds.No wind94%30.01 "HgN/A
9:00 pm79 °FPassing clouds.No wind84%30.01 "HgN/A
Weather by CustomWeather, © 2017

See weather overviewHow to use our weather pages